sat.trackr.live / text

‹ back to catalog

STARLINK-3114

NORAD 49426 · 2021-104U

PAYLOAD ACTIVE UNKNOWN

§ Identity

Operator
Country
US
Launch date
2021-11-13
Launch site
AFETR
Launch vehicle
Mass (kg)
RCS (m²)

Purposes: comms

External: N2YO · Heavens-Above · Gunter

§ Orbital elements

Epoch: 2026-05-24T23:47:06.620640Z

Period
95.44 min
Inclination
53.2148°
Eccentricity
0.0001152
Mean motion
15.08837658 rev/d
Perigee alt
539.0 km
Apogee alt
540.5 km
Semi-major
6,917.9 km
B*
4.1069e-5
RAAN
246.5902°
Arg perigee
86.8016°
Mean anomaly
273.3108°
Rev number
25,014

§ Raw data

STARLINK-31141 49426U 21104U   26144.99104885  .00000366  00000+0  41069-4 0  99922 49426  53.2148 246.5902 0001152  86.8016 273.3108 15.08837658250143

JSON: /api/v1/satellites/49426 · /tle

For live sub-satellite position, see the globe view (requires WebGL).

§ Visibility from observer

Set your observer location to see the next 7 days of passes ≥ 10°. The values pass through the URL so the page stays shareable.

No JS? Fill the form by hand. The geolocation button needs JavaScript.